Zurück zum Katalog

STARLINK-4727

AktivKommunikationVLEO
NORAD 53803·PAYLOAD·🇺🇸 United States

Gestartet Sep 11, 2022 von Cape Canaveral Space Force Station

Loading…

Nächste Überflüge (nächste 24 Stunden)

TLE

AktuellSource: CelesTrak SupGP

Epoche: Sep 15, 2026, 02:45 UTC

1 53803C 22111AG  26258.11506944  .00018600  00000+0  54951-3 0  2588
2 53803  53.1594 110.5549 0001172  75.2366 214.6916 15.34383346    13

Verfolge STARLINK-4727 in Echtzeit mit AllMySat

Download on the App Store